Weather History for Ogallala, NE

Change the Weather History Date:

Thursday, November 7, 2013

  Actual Average Record
Temperature  
Mean Temperature 40 °F -  
Max Temperature 56 °F 52 °F 80 °F (1980)
Min Temperature 24 °F 24 °F 7 °F (1990)
Degree Days  
Heating Degree Days 25    
Moisture  
Dew Point 31 °F    
Average Humidity 71    
Maximum Humidity 93    
Minimum Humidity 42    
Precipitation  
Precipitation 0.00 in - - ()
Sea Level Pressure  
Sea Level Pressure 30.28 in    
Wind  
Wind Speed 4 mph (SSW)    
Max Wind Speed 14 mph    
Max Gust Speed 18 mph    
Visibility 10 miles    
Events      
Averages and records for this station are not official NWS values.
T = Trace of Precipitation, MM = Missing Value Source: NWS Daily Summary

Daily Weather History Graph

Daily Weather History Graph

Search for Another Location

Airport:

Trip Planner

Search our weather history database for the weather conditions in past years. The results will help you decide how hot, cold, wet, or windy it might be!

Date:

Astronomy

Nov. 07, 2013 Rise Set
Actual Time 6:25 AM MST 4:35 PM MST
Civil Twilight 5:56 AM MST 5:04 PM MST
Nautical Twilight 5:23 AM MST 5:37 PM MST
Astronomical Twilight 4:51 AM MST 6:09 PM MST
Moon 10:36 AM MST (11/7) 8:49 PM MST (11/7)
Length of Visible Light 11h 07m
Length of Day
10h 09m
Waxing Crescent, 23% of the Moon is Illuminated
Nov 7
Waxing Crescent
Nov 9
First Quarter
Nov 17
Full
Nov 25
Last Quarter
Dec 2
New

Hourly Weather History & Observations

Time (MST) Temp. Windchill Dew Point Humidity Pressure Visibility Wind Dir Wind Speed Gust Speed Precip Events Conditions
12:35 AM 30.0 °F - 27.3 °F 90% 30.35 in 10.0 mi Calm Calm - N/A   Scattered Clouds
12:55 AM 29.5 °F - 27.0 °F 90% 30.35 in 10.0 mi Calm Calm - N/A   Clear
1:15 AM 27.9 °F - 26.1 °F 93% 30.35 in 10.0 mi Calm Calm - N/A   Clear
1:35 AM 28.6 °F 24.8 °F 26.4 °F 92% 30.35 in 10.0 mi WSW 3.5 mph - N/A   Clear
1:55 AM 29.7 °F - 27.1 °F 90% 30.35 in 10.0 mi Calm Calm - N/A   Clear
2:15 AM 29.1 °F 24.1 °F 26.2 °F 89% 30.35 in 10.0 mi SW 4.6 mph - N/A   Clear
2:35 AM 28.9 °F 21.1 °F 26.8 °F 92% 30.36 in 10.0 mi West 8.1 mph - N/A   Clear
2:55 AM 29.1 °F 22.1 °F 26.6 °F 90% 30.36 in 10.0 mi West 6.9 mph - N/A   Clear
3:15 AM 30.7 °F 24.1 °F 27.9 °F 89% 30.36 in 10.0 mi WNW 6.9 mph - N/A   Clear
3:35 AM 29.3 °F 25.6 °F 26.2 °F 88% 30.37 in 10.0 mi West 3.5 mph - N/A   Clear
3:55 AM 28.8 °F 23.7 °F 25.7 °F 88% 30.37 in 10.0 mi West 4.6 mph - N/A   Clear
4:15 AM 27.5 °F 21.1 °F 25.0 °F 90% 30.38 in 10.0 mi WSW 5.8 mph - N/A   Clear
4:35 AM 27.9 °F - 25.3 °F 90% 30.38 in 10.0 mi Calm Calm - N/A   Clear
4:55 AM 27.7 °F - 25.2 °F 90% 30.38 in 10.0 mi Calm Calm - N/A   Clear
5:15 AM 27.7 °F 23.8 °F 25.3 °F 91% 30.39 in 10.0 mi WSW 3.5 mph - N/A   Clear
5:35 AM 26.2 °F 19.6 °F 23.7 °F 90% 30.40 in 10.0 mi West 5.8 mph - N/A   Clear
5:55 AM 26.6 °F 22.6 °F 23.9 °F 90% 30.40 in 10.0 mi SW 3.5 mph - N/A   Clear
6:15 AM 25.7 °F 21.5 °F 23.7 °F 92% 30.40 in 10.0 mi WSW 3.5 mph - N/A   Clear
6:35 AM 24.8 °F 17.9 °F 22.8 °F 92% 30.40 in 10.0 mi WSW 5.8 mph - N/A   Clear
6:55 AM 25.7 °F - 23.9 °F 93% 30.41 in 10.0 mi Calm Calm - N/A   Clear
7:15 AM 27.3 °F 23.4 °F 25.0 °F 91% 30.41 in 10.0 mi WSW 3.5 mph - N/A   Clear
7:35 AM 29.1 °F - 26.6 °F 90% 30.41 in 10.0 mi Calm Calm - N/A   Clear
7:55 AM 31.1 °F 27.7 °F 27.7 °F 87% 30.41 in 10.0 mi WSW 3.5 mph - N/A   Clear
8:15 AM 32.5 °F 28.1 °F 29.1 °F 87% 30.42 in 10.0 mi WSW 4.6 mph - N/A   Clear
8:35 AM 34.9 °F 30.8 °F 29.8 °F 82% 30.41 in 10.0 mi WSW 4.6 mph - N/A   Clear
8:55 AM 36.7 °F - 31.1 °F 80% 30.42 in 10.0 mi Calm Calm - N/A   Clear
9:15 AM 38.7 °F - 31.6 °F 76% 30.42 in 10.0 mi Calm Calm - N/A   Clear
9:35 AM 40.5 °F - 31.6 °F 71% 30.41 in 10.0 mi Calm Calm - N/A   Clear
9:55 AM 42.3 °F 40.5 °F 32.0 °F 67% 30.41 in 10.0 mi WSW 3.5 mph - N/A   Clear
10:15 AM 43.9 °F - 32.7 °F 65% 30.41 in 10.0 mi Calm Calm - N/A   Clear
10:35 AM 45.7 °F - 32.9 °F 61% 30.40 in 10.0 mi Calm Calm - N/A   Clear
10:55 AM 46.9 °F - 32.5 °F 57% 30.38 in 10.0 mi SSW 3.5 mph - N/A   Clear
11:15 AM 48.6 °F - 32.7 °F 54% 30.38 in 10.0 mi SW 5.8 mph - N/A   Clear
11:35 AM 49.3 °F - 32.9 °F 53% 30.36 in 10.0 mi South 4.6 mph - N/A   Clear
11:55 AM 49.5 °F - 33.3 °F 54% 30.34 in 10.0 mi SSE 6.9 mph - N/A   Clear
12:15 PM 50.4 °F - 33.3 °F 52% 30.33 in 10.0 mi South 6.9 mph - N/A   Clear
12:35 PM 50.4 °F - 34.9 °F 55% 30.32 in 10.0 mi SE 6.9 mph - N/A   Clear
12:55 PM 52.0 °F - 33.3 °F 49% 30.31 in 10.0 mi South 4.6 mph - N/A   Clear
1:15 PM 53.6 °F - 33.8 °F 47% 30.29 in 10.0 mi SE 8.1 mph - N/A   Clear
1:35 PM 54.1 °F - 35.2 °F 49% 30.28 in 10.0 mi ESE 4.6 mph - N/A   Clear
1:55 PM 55.4 °F - 34.7 °F 46% 30.27 in 10.0 mi South 6.9 mph - N/A   Clear
2:15 PM 56.3 °F - 34.7 °F 44% 30.26 in 10.0 mi SSE 8.1 mph - N/A   Clear
2:35 PM 55.6 °F - 32.7 °F 42% 30.25 in 10.0 mi South 8.1 mph - N/A   Clear
2:55 PM 55.0 °F - 35.4 °F 48% 30.24 in 10.0 mi SE 6.9 mph - N/A   Clear
3:35 PM 53.1 °F - 36.7 °F 54% 30.23 in 10.0 mi SE 5.8 mph - N/A   Clear
3:55 PM 52.0 °F - 37.8 °F 58% 30.22 in 10.0 mi SE 3.5 mph - N/A   Clear
4:15 PM 51.6 °F - 37.6 °F 59% 30.22 in 10.0 mi SE 5.8 mph - N/A   Clear
4:35 PM 50.4 °F - 37.2 °F 61% 30.22 in 10.0 mi SE 6.9 mph - N/A   Scattered Clouds
4:55 PM 49.1 °F - 37.4 °F 64% 30.21 in 10.0 mi ESE 6.9 mph - N/A   Mostly Cloudy
5:15 PM 47.8 °F - 36.5 °F 65% 30.19 in 10.0 mi SE 6.9 mph - N/A   Scattered Clouds
5:35 PM 46.0 °F 42.5 °F 35.8 °F 67% 30.19 in 10.0 mi SE 6.9 mph - N/A   Clear
5:55 PM 46.6 °F - 34.5 °F 63% 30.19 in 10.0 mi SSE 9.2 mph - N/A   Clear
6:15 PM 46.6 °F - 34.2 °F 62% 30.18 in 10.0 mi SSE 12.7 mph - N/A   Clear
6:35 PM 45.5 °F 39.6 °F 34.3 °F 65% 30.17 in 10.0 mi SSE 12.7 mph - N/A   Mostly Cloudy
6:55 PM 44.4 °F 39.5 °F 34.2 °F 67% 30.16 in 10.0 mi SSE 9.2 mph - N/A   Scattered Clouds
7:15 PM 43.9 °F 39.3 °F 34.0 °F 68% 30.15 in 10.0 mi SSE 8.1 mph - N/A   Scattered Clouds
7:35 PM 43.9 °F 39.3 °F 33.8 °F 68% 30.14 in 10.0 mi South 8.1 mph - N/A   Scattered Clouds
7:55 PM 43.7 °F 38.1 °F 33.3 °F 67% 30.13 in 10.0 mi South 10.4 mph - N/A   Clear
8:15 PM 43.9 °F 37.5 °F 32.9 °F 65% 30.12 in 10.0 mi South 12.7 mph 17.3 mph N/A   Clear
8:35 PM 43.3 °F 37.2 °F 32.9 °F 67% 30.11 in 10.0 mi South 11.5 mph - N/A   Clear
8:55 PM 43.3 °F 37.2 °F 32.7 °F 66% 30.11 in 10.0 mi South 11.5 mph 17.3 mph N/A   Clear
9:15 PM 43.9 °F 37.9 °F 32.4 °F 64% 30.10 in 10.0 mi South 11.5 mph - N/A   Clear
9:35 PM 44.1 °F 37.4 °F 32.4 °F 63% 30.08 in 10.0 mi SSW 13.8 mph 17.3 mph N/A   Clear
9:55 PM 43.7 °F 37.7 °F 32.0 °F 63% 30.07 in 10.0 mi SSW 11.5 mph 17.3 mph N/A   Scattered Clouds
10:15 PM 43.5 °F 37.1 °F 32.0 °F 64% 30.07 in 10.0 mi SSW 12.7 mph 17.3 mph N/A   Scattered Clouds
10:35 PM 42.8 °F 38.6 °F 32.0 °F 66% 30.06 in 10.0 mi SW 6.9 mph 18.4 mph N/A   Scattered Clouds
10:55 PM 43.0 °F 36.0 °F 31.8 °F 65% 30.05 in 10.0 mi South 13.8 mph 17.3 mph N/A   Scattered Clouds
11:15 PM 41.9 °F 35.4 °F 32.0 °F 68% 30.04 in 10.0 mi South 11.5 mph 17.3 mph N/A   Mostly Cloudy
11:35 PM 40.1 °F 34.7 °F 32.0 °F 73% 30.02 in 10.0 mi SSW 8.1 mph - N/A   Scattered Clouds
11:55 PM 40.6 °F 33.4 °F 31.8 °F 71% 30.01 in 10.0 mi South 12.7 mph - N/A   Clear